Location: Góry Miechowskie
(50.3599°N, 20.1803°E)
Time: 22:20:08
(UTC+00:00)

Cosmos 1603 - Visible Passes

Search period start: 16 September 2024 00:00
Search period end: 26 September 2024 00:00
Orbit: 831 x 857 km, 71.0° (Epoch: 16 September)

Date Brightness Start Highest point End Pass type
(mag) Time Alt. Az. Time Alt. Az. Time Alt. Az.
16 Sep 6.2 03:22:09 10° N 03:25:36 16° NNE 03:29:01 10° ENE visible
16 Sep 5.6 20:11:19 18° NE 20:11:19 18° NE 20:12:51 10° NE visible
16 Sep 5.1 21:53:09 34° NNW 21:53:09 34° NNW 21:57:01 10° NNE visible
16 Sep 6.3 23:35:00 10° NW 23:37:30 13° NNW 23:40:09 10° N visible
17 Sep 6.3 03:07:56 10° N 03:11:19 16° NNE 03:14:41 10° ENE visible
17 Sep 5.5 19:57:04 18° NE 19:57:04 18° NE 19:58:36 10° NE visible
17 Sep 5.1 21:38:54 34° NNW 21:38:54 34° NNW 21:42:47 10° NNE visible
17 Sep 6.3 23:20:44 11° NW 23:23:13 13° NNW 23:25:56 10° N visible
18 Sep 6.3 02:53:44 10° N 02:57:02 16° NNE 03:00:20 10° ENE visible
18 Sep 5.5 19:42:45 19° NE 19:42:45 19° NE 19:44:21 10° NE visible
18 Sep 5.0 21:24:35 36° NNW 21:24:35 36° NNW 21:28:33 10° NNE visible
18 Sep 6.3 23:06:24 11° NW 23:08:55 14° NNW 23:11:43 10° N visible
19 Sep 6.3 02:39:31 10° N 02:42:45 15° NNE 02:45:59 10° ENE visible
19 Sep 5.4 19:28:20 19° NE 19:28:20 19° NE 19:30:05 10° NE visible
19 Sep 4.9 21:10:09 38° NNW 21:10:09 38° NNW 21:14:19 10° NNE visible
19 Sep 6.3 22:51:59 10° NW 22:54:39 14° NNW 22:57:31 10° N visible
20 Sep 6.4 02:25:18 10° N 02:28:28 15° NNE 02:31:38 10° ENE visible
20 Sep 5.2 19:13:47 21° NE 19:13:47 21° NE 19:15:49 10° NE visible
20 Sep 4.8 20:55:35 41° NNW 20:55:35 41° NNW 21:00:05 10° NNE visible
20 Sep 6.3 22:37:25 10° WNW 22:40:21 14° NNW 22:43:18 10° N visible
21 Sep 6.4 02:11:05 10° N 02:14:11 15° NNE 02:17:16 10° ENE visible
21 Sep 4.9 18:58:58 25° ENE 18:58:58 25° ENE 19:01:33 10° NE visible
21 Sep 4.6 20:40:45 45° NW 20:40:45 45° NW 20:45:52 10° NNE visible
21 Sep 6.3 22:23:03 10° WNW 22:26:04 14° NNW 22:29:06 10° N visible
22 Sep 6.4 01:56:53 10° N 01:59:54 14° NNE 02:02:55 10° ENE visible
22 Sep 4.9 03:40:07 10° NNW 03:45:31 46° NE 03:50:53 10° SE visible
22 Sep 4.5 18:43:34 31° ENE 18:43:34 31° ENE 18:47:17 10° NE visible
22 Sep 4.6 20:25:17 43° W 20:26:11 46° NW 20:31:38 10° NNE visible
22 Sep 6.3 22:08:42 10° WNW 22:11:48 15° NNW 22:14:53 10° N visible
23 Sep 6.5 01:42:40 10° N 01:45:37 14° NNE 01:48:33 10° ENE visible
23 Sep 4.9 03:25:53 10° NNW 03:31:16 44° NE 03:36:37 10° SE visible
23 Sep 4.2 18:22:54 10° S 18:27:57 35° ESE 18:33:01 10° NE visible
23 Sep 4.5 20:06:28 10° SW 20:11:56 48° NW 20:17:23 10° NNE visible
23 Sep 6.3 21:54:21 10° WNW 21:57:30 15° NNW 22:00:39 10° N visible
24 Sep 6.5 01:28:27 10° N 01:31:19 14° NNE 01:34:11 10° ENE visible
24 Sep 5.0 03:11:39 10° NNW 03:17:01 43° NE 03:22:20 10° ESE visible
24 Sep 4.2 18:08:43 10° S 18:13:44 34° ESE 18:18:45 10° NE visible
24 Sep 4.5 19:52:12 10° SW 19:57:41 49° NW 20:03:09 10° NNE visible
24 Sep 6.3 21:40:00 10° WNW 21:43:13 15° NNW 21:46:27 10° N visible
25 Sep 6.5 01:14:14 10° N 01:17:02 14° NNE 01:19:50 10° ENE visible
25 Sep 5.0 02:57:26 10° NNW 03:02:45 42° NE 03:08:03 10° ESE visible
25 Sep 4.3 17:54:32 10° SSE 17:59:31 33° ESE 18:04:29 10° NE visible
25 Sep 4.4 19:37:55 10° SW 19:43:26 50° NW 19:48:55 10° NNE visible
25 Sep 6.3 21:25:39 10° WNW 21:28:56 15° NNW 21:32:13 10° N visible
